Location: Bennemühlen
(52.5740°N, 9.7135°E)
Time: 07:21:35
(UTC+00:00)

A-11 Canister half - Pass Details

Date: 27 February 2026
Orbit: 1512 x 1687 km, 47.2° (Epoch: 8 March)

Event Time Altitude Azimuth Distance (km) Brightness Sun altitude
Rises 21:07:52 0° 268° (W) 4,943 12.2 -36.5°
Reaches altitude 10° 21:11:05 10° 266° (W) 3,951 11.5 -36.9°
Enters shadow 21:19:28 58° 227° (SW) 1,900 9.3 -37.8°
Maximum altitude 21:21:03 64° 188° (S) 1,809 - -38.0°
Drops below altitude 10° 21:30:46 10° 110° (ESE) 3,852 - -39.0°
Sets 21:33:52 0° 108° (ESE) 4,815 - -39.3°
